VK2RZ Weather Reports


Display with metric or nautical units.
time (UTC)temp
F
wind
direction
speed
MPH
gust
MPH
rain 1hr
in
rain 24hr
in
rain mn
in
humidity
%
barometer
mb
20260506002046 63 262 4.0 9.0 0.00 0.00 0.00 6 1020.3
20260506001046 63 249 5.0 9.0 0.00 0.00 0.00 6 1020.4
20260506000046 63 264 8.0 9.0 0.00 0.00 0.00 6 1020.5
20260505235046 63 247 9.0 9.0 0.00 0.00 0.00 6 1020.5
20260505234046 62 247 6.0 8.0 0.00 0.00 0.00 6 1020.6
20260505233046 62 255 8.0 12.0 0.00 0.00 0.00 6 1020.5
20260505232046 61 239 6.0 10.0 0.00 0.00 0.00 6 1020.4
20260505231046 61 254 4.0 11.0 0.00 0.00 0.00 6 1020.4
20260505230046 60 221 4.0 7.0 0.00 0.00 0.00 6 1020.4
20260505225046 59 259 5.0 9.0 0.00 0.00 0.00 6 1020.3
20260505224046 59 245 10.0 13.0 0.00 0.00 0.00 7 1020.4
20260505223046 58 248 6.0 11.0 0.00 0.00 0.00 7 1020.4
20260505222046 58 260 15.0 17.0 0.00 0.00 0.00 7 1020.5
20260505221046 57 244 10.0 14.0 0.00 0.00 0.00 7 1020.4
20260505220046 57 246 9.0 11.0 0.00 0.00 0.00 7 1020.4
20260505215046 57 230 11.0 15.0 0.00 0.00 0.00 7 1020.4
20260505214046 56 251 13.0 15.0 0.00 0.00 0.00 7 1020.5
20260505213046 55 245 9.0 10.0 0.00 0.00 0.00 7 1020.5
20260505212046 55 213 5.0 9.0 0.00 0.00 0.00 7 1020.4
20260505211046 55 256 13.0 17.0 0.00 0.00 0.00 7 1020.3
20260505210046 55 248 4.0 11.0 0.00 0.00 0.00 7 1020.3
20260505205046 55 237 6.0 8.0 0.00 0.00 0.00 7 1020.2
20260505204046 55 254 8.0 11.0 0.00 0.00 0.00 7 1020.2
20260505203046 55 250 6.0 13.0 0.00 0.00 0.00 7 1020.2
20260505202046 56 243 5.0 9.0 0.00 0.00 0.00 7 1020.1
20260505201046 56 252 12.0 16.0 0.00 0.00 0.00 7 1020.0
20260505200045 56 245 6.0 16.0 0.00 0.00 0.00 7 1020.0
20260505195045 56 221 12.0 14.0 0.00 0.00 0.00 7 1020.0
20260505194045 56 224 6.0 10.0 0.00 0.00 0.00 7 1020.0
20260505193045 56 258 8.0 15.0 0.00 0.00 0.00 7 1019.9
20260505192045 56 220 5.0 12.0 0.00 0.00 0.00 7 1020.0
20260505191045 56 225 10.0 13.0 0.00 0.00 0.00 7 1020.0
20260505190044 56 245 11.0 13.0 0.00 0.00 0.00 7 1020.1
20260505185044 56 238 11.0 13.0 0.00 0.00 0.00 7 1020.0
20260505184044 56 244 5.0 10.0 0.00 0.00 0.00 7 1020.0
20260505183044 56 264 8.0 10.0 0.00 0.00 0.00 7 1020.0
20260505182044 56 235 6.0 13.0 0.00 0.00 0.00 7 1020.0
20260505181044 57 235 3.0 14.0 0.00 0.00 0.00 6 1019.9
20260505180044 57 251 10.0 12.0 0.00 0.00 0.00 6 1019.9
20260505175044 57 276 8.0 13.0 0.00 0.00 0.00 6 1019.9
20260505174044 57 241 5.0 9.0 0.00 0.00 0.00 6 1020.0
20260505173044 57 249 5.0 13.0 0.00 0.00 0.00 6 1020.0
20260505172044 57 244 6.0 10.0 0.00 0.00 0.00 6 1020.1
20260505171044 57 241 6.0 9.0 0.00 0.00 0.00 6 1020.1
20260505170044 57 250 12.0 14.0 0.00 0.00 0.00 6 1020.1
20260505165044 57 259 7.0 10.0 0.00 0.00 0.00 6 1020.2
20260505164044 57 262 8.0 9.0 0.00 0.00 0.00 6 1020.2
20260505163044 58 238 6.0 13.0 0.00 0.00 0.00 6 1020.4
20260505162044 58 239 16.0 16.0 0.00 0.00 0.00 6 1020.3
20260505161044 58 233 11.0 11.0 0.00 0.00 0.00 6 1020.3
20260505153044 59 210 9.0 15.0 0.00 0.00 0.00 6 1020.8
20260505152044 59 239 10.0 15.0 0.00 0.00 0.00 6 1020.8
20260505151044 59 252 15.0 16.0 0.00 0.00 0.00 6 1020.8
20260505124044 61 249 6.0 11.0 0.00 0.00 0.00 6 1021.0
20260505123044 61 247 9.0 10.0 0.00 0.00 0.00 6 1021.0
20260505122044 61 266 3.0 4.0 0.00 0.00 0.00 6 1021.0
20260505121044 62 250 9.0 9.0 0.00 0.00 0.00 6 1021.1
20260505120044 62 235 3.0 9.0 0.00 0.00 0.00 6 1021.0
20260505115044 62 168 2.0 3.0 0.00 0.00 0.00 6 1020.9
20260505114044 62 167 1.0 2.0 0.00 0.00 0.00 6 1020.9
20260505113044 63 0 0.0 0.0 0.00 0.00 0.00 6 1020.9
20260505112044 64 0 0.0 0.0 0.00 0.00 0.00 6 1021.0
20260505111044 63 0 0.0 0.0 0.00 0.00 0.00 6 1020.9
20260505102043 63 162 1.0 1.0 0.00 0.00 0.00 6 1020.7
20260505101043 63 0 0.0 0.0 0.00 0.00 0.00 6 1020.7
20260505100043 63 0 0.0 0.0 0.00 0.00 0.00 6 1020.7
20260505095043 63 0 0.0 0.0 0.00 0.00 0.00 6 1020.6
20260505094043 63 0 0.0 0.0 0.00 0.00 0.00 6 1020.5
20260505093043 63 0 0.0 1.0 0.00 0.00 0.00 6 1020.3
20260505092043 63 0 0.0 0.0 0.00 0.00 0.00 6 1020.1
20260505091042 63 0 0.0 0.0 0.00 0.00 0.00 6 1020.0
20260505090042 63 162 1.0 2.0 0.00 0.00 0.00 6 1019.8
20260505085042 63 0 0.0 0.0 0.00 0.00 0.00 6 1019.8
20260505084042 63 0 0.0 0.0 0.00 0.00 0.00 6 1019.6
20260505083042 63 0 0.0 0.0 0.00 0.00 0.00 6 1019.6
20260505082042 64 0 0.0 0.0 0.00 0.00 0.00 6 1019.5
20260505081042 64 0 0.0 0.0 0.00 0.00 0.00 6 1019.4
20260505080041 64 0 0.0 0.0 0.00 0.00 0.00 6 1019.2
20260505075041 64 0 0.0 0.0 0.00 0.00 0.00 6 1019.1
20260505074041 65 162 1.0 1.0 0.00 0.00 0.00 6 1018.7
20260505073041 65 0 0.0 1.0 0.00 0.00 0.00 6 1018.6
20260505072041 65 0 0.0 0.0 0.00 0.00 0.00 6 1018.5
20260505071041 66 143 5.0 5.0 0.00 0.00 0.00 6 1018.4
20260505070040 66 118 3.0 4.0 0.00 0.00 0.00 6 1018.4
20260505065039 66 118 1.0 2.0 0.00 0.00 0.00 6 1018.1
20260505064039 66 0 0.0 1.0 0.00 0.00 0.00 5 1017.9
20260505063039 66 257 2.0 2.0 0.00 0.00 0.00 5 1017.6
20260505062039 67 0 0.0 0.0 0.00 0.00 0.00 5 1017.6
20260505061039 67 257 2.0 2.0 0.00 0.00 0.00 5 1017.5
20260505060039 68 252 3.0 3.0 0.00 0.00 0.00 5 1017.4
20260505055039 68 260 2.0 3.0 0.00 0.00 0.00 5 1017.4
20260505054039 69 0 0.0 1.0 0.00 0.00 0.00 5 1017.4
20260505053039 69 237 1.0 3.0 0.00 0.00 0.00 5 1017.3
20260505052039 70 216 4.0 8.0 0.00 0.00 0.00 4 1017.4
20260505051039 70 263 7.0 7.0 0.00 0.00 0.00 5 1017.4
20260505041039 70 256 8.0 11.0 0.00 0.00 0.00 4 1017.0
20260505040038 70 227 4.0 7.0 0.00 0.00 0.00 5 1016.8
20260505035038 70 249 4.0 8.0 0.00 0.00 0.00 4 1017.0
20260505034038 70 231 5.0 5.0 0.00 0.00 0.00 4 1017.0
20260505033038 70 209 2.0 4.0 0.00 0.00 0.00 5 1017.0
20260505032038 70 240 4.0 11.0 0.00 0.00 0.00 5 1017.2
20260505031038 70 233 2.0 4.0 0.00 0.00 0.00 5 1017.2
20260505030038 69 197 2.0 4.0 0.00 0.00 0.00 5 1017.3
20260505025038 69 195 3.0 6.0 0.00 0.00 0.00 5 1017.2
20260505024038 69 240 6.0 6.0 0.00 0.01 0.00 5 1017.4
20260505023038 69 214 3.0 8.0 0.00 0.01 0.00 5 1017.5
20260505022037 68 204 6.0 8.0 0.00 0.02 0.00 5 1017.5
20260505021037 68 276 7.0 12.0 0.00 0.02 0.00 5 1017.6
20260505020037 68 239 7.0 7.0 0.00 0.03 0.00 5 1017.5
20260505015037 68 228 3.0 6.0 0.00 0.03 0.00 5 1017.8
20260505014037 67 254 9.0 11.0 0.00 0.03 0.00 5 1017.9
20260505013037 67 213 6.0 11.0 0.00 0.03 0.00 5 1018.1
20260505012037 67 222 4.0 4.0 0.00 0.03 0.00 5 1018.1
20260505011037 66 235 2.0 8.0 0.00 0.03 0.00 5 1018.0
20260505010037 66 260 7.0 8.0 0.00 0.03 0.00 5 1018.2
20260505005037 66 236 7.0 7.0 0.00 0.03 0.00 5 1018.4
20260505004037 65 230 3.0 7.0 0.00 0.03 0.00 5 1018.5
20260505003037 65 247 11.0 11.0 0.00 0.03 0.00 5 1018.6